#timestamp,LO_Frequency,Hit,StdDev 
1544522415.4,286047000.9,N
1544522435.3,286047003.0,N
1544522455.1,286047007.4,N
1544522475.9,286047008.1,N
1544522495.7,286047010.3,N
1544522515.5,286047011.0,N
1544522535.4,286047014.6,N
1544522555.2,286047015.0,N
1544522575.0,286047013.4,N
1544522575.9,286047013.4,N
1544522595.8,286047016.8,N
1544522615.6,286047014.1,N
1544522635.4,286047012.2,N
1544522655.3,286047013.3,N
1544522675.1,286047014.3,N
1544522695.9,286047008.3,N
1544522715.7,286047005.4,N
1544522735.5,286046999.3,N
1544522755.4,286046992.1,N
1544522775.2,286046992.7,N
1544522795.0,286046995.4,N
1544522795.9,286046995.4,N
1544522815.8,286046997.1,N
1544522835.6,286047002.8,N
1544522855.5,286047005.1,N
1544522875.3,286047004.2,N
1544522895.1,286046998.6,N
1544522915.9,286047002.5,N
1544522935.7,286047001.3,N
1544522955.5,286047001.1,N
1544522975.4,286046999.0,N
1544522995.2,286046995.6,N
1544523015.1,286046992.8,N
1544523016.0,286046992.8,N
1544523035.8,286046987.9,N
1544523055.6,286046984.3,N
1544523075.5,286046979.3,N
1544523095.3,286046976.0,N
1544523115.1,286046973.5,N
1544523135.9,286046973.5,N
1544523155.7,286046968.4,N
1544523175.5,286046967.8,N
1544523195.4,286046971.0,N
1544523215.2,286046970.8,N
1544523235.1,286046970.7,N
1544523236.0,286046970.7,N
1544523255.8,286046969.1,N
1544523275.6,286046964.6,N
1544523295.5,286046970.7,N
1544523315.3,286046972.7,N
1544523335.1,286046973.1,N
1544523355.9,286046972.2,N
1544523375.7,286046971.2,N
1544523395.6,286046971.0,N
1544523415.4,286046971.6,N
1544523435.2,286046986.3,N
1544523455.1,286046972.1,N
1544523456.0,286046972.1,N
1544523475.8,286046972.2,N
1544523495.6,286046972.7,N
1544523515.5,286046974.9,N
1544523535.3,286046975.8,Y
1544523555.2,286047005.1,P
1544523575.0,286047005.6,N
1544523575.9,286047005.6,N
1544523595.7,286047005.0,N
1544523615.6,286047003.0,N
1544523635.4,286047002.1,N
1544523655.3,286047002.3,N
1544523675.1,286047001.8,N
1544523676.0,286047001.8,N
1544523695.8,286047004.8,N
1544523715.7,286047010.6,N
1544523735.5,286047009.5,N
1544523755.3,286047009.2,N
1544523775.2,286047004.9,N
1544523795.0,286047005.3,N
1544523795.9,286047005.3,N
1544523815.8,286047002.9,N
1544523835.6,286047004.2,N
1544523855.4,286047001.9,N
1544523875.3,286047003.0,N
1544523895.1,286047007.9,N
1544523915.8,286047014.4,N
1544523935.7,286047016.5,N
1544523955.5,286047020.1,N
1544523975.4,286047024.3,Y
1544523995.2,286047023.0,P
1544524015.0,286047020.9,N
1544524015.9,286047020.9,N
1544524035.8,286047017.8,N
1544524055.6,286047019.5,Y
1544524075.4,286047006.0,P
1544524095.3,286047007.5,N
1544524115.1,286047008.1,N
1544524135.9,286047009.1,N
1544524155.7,286047008.6,N
1544524175.5,286047011.9,Y
1544524195.4,286047002.4,P
1544524215.2,286046998.1,N
1544524235.0,286047005.1,N
1544524235.9,286047005.1,N
1544524255.8,286047004.2,N
1544524275.6,286047001.9,N
1544524295.5,286047002.2,N
1544524315.3,286047001.2,N
1544524335.1,286046996.7,N
1544524355.9,286046998.7,N
1544524375.7,286047000.1,N
1544524395.5,286046999.3,N
1544524415.4,286047000.5,N
1544524435.2,286047004.0,N
1544524455.1,286047004.7,N
1544524456.0,286047004.7,N
1544524475.8,286047005.4,N
1544524495.6,286047005.1,N
1544524515.5,286047005.5,N
1544524535.3,286047006.0,N
1544524555.1,286047006.6,N
1544524575.9,286047008.4,N
1544524595.7,286047012.0,Y
1544524615.6,286047008.2,P
1544524635.4,286047008.1,P
1544524655.2,286047009.8,P
1544524675.1,286047011.1,Y
1544524676.0,286047011.1,P
1544524695.8,286047008.8,P
1544524715.6,286047007.1,P
1544524735.5,286047008.0,Y
1544524755.3,286046998.8,P
1544524775.2,286046996.6,N
1544524795.9,286046994.8,N
1544524815.7,286046987.5,N
1544524835.6,286046986.8,N
1544524855.4,286046981.5,N
1544524875.2,286046974.9,N
1544524895.1,286046976.7,N
1544524896.0,286046976.7,N
1544524915.8,286046980.4,N
1544524935.7,286046978.4,N
1544524955.5,286046972.1,N
1544524975.3,286046966.7,Y
1544524995.2,286046982.4,P
1544525015.0,286046983.8,P
1544525015.9,286046983.8,P
1544525035.8,286046983.9,Y
1544525055.6,286047004.3,P
1544525075.4,286047005.4,N
1544525095.3,286047008.7,N
1544525115.1,286047008.4,N
1544525135.8,286047008.4,N
1544525155.7,286047012.1,N
1544525175.5,286047015.1,N
1544525195.4,286047013.0,N
1544525215.2,286047010.6,N
1544525235.0,286047007.2,N
1544525235.9,286047007.2,N
1544525255.8,286047002.5,N
1544525275.6,286047002.1,N
1544525295.4,286047003.3,N
1544525315.3,286047006.8,N
1544525335.1,286047005.3,N
1544525355.9,286047005.4,N
1544525375.7,286047001.3,N
1544525395.5,286047005.2,N
1544525415.4,286047004.5,N
1544525435.2,286047003.8,N
1544525455.0,286047004.7,N
1544525455.9,286047004.7,N
1544525475.8,286047001.9,N
1544525495.6,286046999.5,N
1544525515.5,286046993.9,N
1544525535.3,286046994.0,N
1544525555.1,286046997.1,N
1544525575.9,286046998.3,N
1544525595.7,286046997.2,N
1544525615.5,286046993.5,N
1544525635.4,286046996.3,N
1544525655.2,286047001.4,N
1544525675.1,286046999.1,N
1544525676.0,286046999.1,N
1544525695.8,286046992.5,N
1544525715.6,286046988.8,N
1544525735.5,286046987.9,N
1544525755.3,286046983.3,Y
1544525775.1,286046979.5,P
1544525795.9,286046979.7,N
1544525815.7,286046979.9,N
1544525835.6,286046980.1,N
1544525855.4,286046978.5,N
1544525875.2,286046977.9,N
1544525895.1,286046976.3,Y
1544525896.0,286046976.3,P
1544525915.8,286046996.0,N
1544525935.6,286046994.6,N
1544525955.5,286046992.2,N
1544525975.3,286046994.2,N
1544525995.2,286046999.6,N
